Location: ??
(34.7252°N, 135.5457°E)
Time: 09:05:36
(UTC+00:00)

Cosmos 2278 Rocket - Pass Details

Date: 24 September 2020
Orbit: 841 x 845 km, 71.0° (Epoch: 23 October)

Event Time Altitude Azimuth Distance (km) Brightness Sun altitude
Rises 20:08:05 0° 350° (N) 3,404 5.3 -9.0°
Reaches altitude 10° 20:10:55 10° 3° (N) 2,466 4.7 -8.4°
Maximum altitude 20:15:41 27° 60° (ENE) 1,557 4.5 -7.5°
Drops below altitude 10° 20:20:26 10° 118° (ESE) 2,458 5.7 -6.5°
Sets 20:23:13 0° 130° (SE) 3,390 6.1 -5.9°
